Location: Newark
(34.0131°N, 4.3314°W)
Time: 22:28:07
(UTC+00:00)

Transit 2A Rocket - Pass Details

Date: 26 October 2019
Orbit: 594 x 909 km, 66.7° (Epoch: 13 November)

Event Time Altitude Azimuth Distance (km) Brightness Sun altitude
Rises 13:01:46 0° 332° (NNW) 2,836 7.6 41.4°
Reaches altitude 10° 13:03:59 10° 331° (NNW) 1,937 6.9 41.2°
Maximum altitude 13:08:18 81° 245° (WSW) 622 5.5 40.9°
Drops below altitude 10° 13:12:48 10° 158° (SSE) 2,015 7.9 40.5°
Sets 13:15:08 0° 158° (SSE) 2,960 8.5 40.3°
